,,PressureMeas_1m,,PRMeasQMR101_1,,RHStat155_1m_1,,SRMeasQMS101R_1m,,TAStat155_1m_1,,GenWind_1,,GenWind_1,
2019-06-17, 00:00:07,VALID,919.158,VALID,0.0,VALID,98.771,VALID,0.019,VALID,20.438,VALID,97.0,VALID,0.0,
2019-06-17, 00:01:07,VALID,919.151,VALID,0.0,VALID,98.851,VALID,0.022,VALID,20.465,VALID,79.0,VALID,0.0,
2019-06-17, 00:02:07,VALID,919.147,VALID,0.0,VALID,98.913,VALID,0.013,VALID,20.464,VALID,49.0,VALID,0.0,
2019-06-17, 00:03:07,VALID,919.16,VALID,0.0,VALID,98.967,VALID,0.016,VALID,20.484,VALID,11.0,VALID,0.0,
2019-06-17, 00:04:07,VALID,919.165,VALID,0.0,VALID,99.017,VALID,0.024,VALID,20.49,VALID,9.0,VALID,0.0,
2019-06-17, 00:05:07,VALID,919.15,VALID,0.0,VALID,99.061,VALID,0.018,VALID,20.495,VALID,9.0,VALID,0.0,
2019-06-17, 00:06:07,VALID,919.143,VALID,0.0,VALID,99.089,VALID,0.008,VALID,20.48,VALID,9.0,VALID,0.0,
2019-06-17, 00:07:07,VALID,919.135,VALID,0.0,VALID,99.129,VALID,0.024,VALID,20.488,VALID,9.0,VALID,0.0,
2019-06-17, 00:08:07,VALID,919.142,VALID,0.0,VALID,99.143,VALID,0.024,VALID,20.482,VALID,13.0,VALID,0.0,
2019-06-17, 00:09:07,VALID,919.115,VALID,0.0,VALID,99.16,VALID,0.035,VALID,20.439,VALID,14.0,VALID,0.0,
2019-06-17, 00:10:07,VALID,919.109,VALID,0.0,VALID,99.157,VALID,0.025,VALID,20.419,VALID,14.0,VALID,0.0,
2019-06-17, 00:11:07,VALID,919.097,VALID,0.0,VALID,99.193,VALID,0.036,VALID,20.42,VALID,14.0,VALID,0.0,
2019-06-17, 00:12:07,VALID,919.087,VALID,0.0,VALID,99.228,VALID,0.014,VALID,20.426,VALID,14.0,VALID,0.0,
2019-06-17, 00:13:06,VALID,919.089,VALID,0.0,VALID,99.235,VALID,-0.002,VALID,20.418,VALID,12.0,VALID,0.0,
2019-06-17, 00:14:06,VALID,919.08,VALID,0.0,VALID,99.253,VALID,0.017,VALID,20.408,VALID,12.0,VALID,0.0,
2019-06-17, 00:15:06,VALID,919.073,VALID,0.0,VALID,99.249,VALID,0.032,VALID,20.396,VALID,11.0,VALID,0.0,
2019-06-17, 00:16:06,VALID,919.059,VALID,0.0,VALID,99.275,VALID,0.048,VALID,20.394,VALID,11.0,VALID,0.0,
2019-06-17, 00:17:06,VALID,919.067,VALID,0.0,VALID,99.292,VALID,-0.027,VALID,20.41,VALID,11.0,VALID,0.0,
2019-06-17, 00:18:06,VALID,919.04,VALID,0.0,VALID,99.295,VALID,-0.04,VALID,20.411,VALID,11.0,VALID,0.0,
2019-06-17, 00:19:06,VALID,919.041,VALID,0.0,VALID,99.27,VALID,-0.042,VALID,20.397,VALID,11.0,VALID,0.0,
2019-06-17, 00:20:06,VALID,919.03,VALID,0.0,VALID,99.28,VALID,-0.042,VALID,20.385,VALID,12.0,VALID,0.0,
2019-06-17, 00:21:06,VALID,919.006,VALID,0.0,VALID,99.276,VALID,-0.039,VALID,20.361,VALID,12.0,VALID,0.0,
2019-06-17, 00:22:06,VALID,919.01,VALID,0.0,VALID,99.256,VALID,-0.042,VALID,20.3,VALID,12.0,VALID,0.0,
2019-06-17, 00:23:06,VALID,919.018,VALID,0.0,VALID,99.197,VALID,-0.037,VALID,20.246,VALID,12.0,VALID,0.0,
2019-06-17, 00:24:06,VALID,918.989,VALID,0.0,VALID,99.172,VALID,-0.04,VALID,20.193,VALID,12.0,VALID,0.0,
2019-06-17, 00:25:06,VALID,918.971,VALID,0.0,VALID,99.134,VALID,-0.038,VALID,20.164,VALID,12.0,VALID,0.0,
2019-06-17, 00:26:06,VALID,918.962,VALID,0.0,VALID,99.102,VALID,-0.037,VALID,20.122,VALID,12.0,VALID,0.0,
2019-06-17, 00:27:06,VALID,918.959,VALID,0.0,VALID,99.062,VALID,-0.029,VALID,20.083,VALID,12.0,VALID,0.0,
2019-06-17, 00:28:06,VALID,918.923,VALID,0.0,VALID,99.069,VALID,-0.05,VALID,20.074,VALID,12.0,VALID,0.0,
2019-06-17, 00:29:06,VALID,918.913,VALID,0.0,VALID,99.018,VALID,-0.051,VALID,19.976,VALID,12.0,VALID,0.0,
2019-06-17, 00:30:06,VALID,918.89,VALID,0.0,VALID,98.905,VALID,-0.031,VALID,19.886,VALID,12.0,VALID,0.0,
2019-06-17, 00:31:06,VALID,918.857,VALID,0.0,VALID,98.909,VALID,-0.02,VALID,19.903,VALID,12.0,VALID,0.0,
2019-06-17, 00:32:06,VALID,918.849,VALID,0.0,VALID,99.056,VALID,-0.016,VALID,20.008,VALID,12.0,VALID,0.0,
2019-06-17, 00:33:06,VALID,918.843,VALID,0.0,VALID,99.197,VALID,-0.013,VALID,20.111,VALID,12.0,VALID,0.0,
2019-06-17, 00:34:06,VALID,918.826,VALID,0.0,VALID,99.184,VALID,-0.007,VALID,20.052,VALID,12.0,VALID,0.0,
2019-06-17, 00:35:06,VALID,918.801,VALID,0.0,VALID,99.203,VALID,-0.005,VALID,20.038,VALID,12.0,VALID,0.0,
2019-06-17, 00:36:06,VALID,918.792,VALID,0.0,VALID,99.219,VALID,0.008,VALID,20.05,VALID,12.0,VALID,0.0,
2019-06-17, 00:37:06,VALID,918.79,VALID,0.0,VALID,99.23,VALID,0.014,VALID,20.033,VALID,12.0,VALID,0.0,
2019-06-17, 00:38:06,VALID,918.777,VALID,0.0,VALID,99.213,VALID,0.013,VALID,19.979,VALID,12.0,VALID,0.0,
2019-06-17, 00:39:06,VALID,918.753,VALID,0.0,VALID,99.168,VALID,0.015,VALID,19.923,VALID,26.0,VALID,0.0,
2019-06-17, 00:40:06,VALID,918.746,VALID,0.0,VALID,99.167,VALID,0.007,VALID,19.878,VALID,66.0,VALID,0.0,
2019-06-17, 00:41:06,VALID,918.716,VALID,0.0,VALID,99.163,VALID,0.0,VALID,19.886,VALID,78.0,VALID,0.0,
2019-06-17, 00:42:06,VALID,918.707,VALID,0.0,VALID,99.222,VALID,-0.006,VALID,19.901,VALID,110.0,VALID,0.0,
2019-06-17, 00:43:06,VALID,918.696,VALID,0.0,VALID,99.178,VALID,-0.007,VALID,19.861,VALID,115.0,VALID,0.0,
2019-06-17, 00:44:06,VALID,918.691,VALID,0.0,VALID,99.212,VALID,-0.004,VALID,19.837,VALID,115.0,VALID,0.0,
2019-06-17, 00:45:06,VALID,918.677,VALID,0.0,VALID,99.177,VALID,-0.004,VALID,19.797,VALID,117.0,VALID,0.0,
2019-06-17, 00:46:06,VALID,918.665,VALID,0.0,VALID,99.138,VALID,-0.014,VALID,19.757,VALID,119.0,VALID,0.0,
2019-06-17, 00:47:06,VALID,918.657,VALID,0.0,VALID,99.115,VALID,-0.017,VALID,19.727,VALID,124.0,VALID,0.0,
2019-06-17, 00:48:06,VALID,918.655,VALID,0.0,VALID,99.119,VALID,-0.015,VALID,19.718,VALID,126.0,VALID,0.0,
2019-06-17, 00:49:06,VALID,918.631,VALID,0.0,VALID,99.145,VALID,-0.016,VALID,19.708,VALID,121.0,VALID,0.0,
2019-06-17, 00:50:06,VALID,918.617,VALID,0.0,VALID,99.12,VALID,-0.031,VALID,19.645,VALID,110.0,VALID,0.0,
2019-06-17, 00:51:06,VALID,918.619,VALID,0.0,VALID,99.13,VALID,-0.021,VALID,19.659,VALID,96.0,VALID,0.0,
2019-06-17, 00:52:06,VALID,918.594,VALID,0.0,VALID,99.201,VALID,-0.003,VALID,19.715,VALID,94.0,VALID,0.0,
2019-06-17, 00:53:06,VALID,918.58,VALID,0.0,VALID,99.209,VALID,-0.011,VALID,19.724,VALID,89.0,VALID,0.0,
2019-06-17, 00:54:06,VALID,918.578,VALID,0.0,VALID,99.274,VALID,-0.008,VALID,19.767,VALID,89.0,VALID,0.0,
2019-06-17, 00:55:06,VALID,918.557,VALID,0.0,VALID,99.287,VALID,-0.008,VALID,19.752,VALID,89.0,VALID,0.0,
2019-06-17, 00:56:06,VALID,918.536,VALID,0.0,VALID,99.261,VALID,-0.011,VALID,19.692,VALID,89.0,VALID,0.0,
2019-06-17, 00:57:06,VALID,918.536,VALID,0.0,VALID,99.238,VALID,-0.03,VALID,19.671,VALID,89.0,VALID,0.0,
2019-06-17, 00:58:06,VALID,918.53,VALID,0.0,VALID,99.212,VALID,-0.025,VALID,19.633,VALID,89.0,VALID,0.0,
2019-06-17, 00:59:06,VALID,918.514,VALID,0.0,VALID,99.159,VALID,-0.019,VALID,19.581,VALID,89.0,VALID,0.0,
2019-06-17, 01:00:06,VALID,918.488,VALID,0.0,VALID,99.187,VALID,-0.017,VALID,19.589,VALID,89.0,VALID,0.0,
2019-06-17, 01:01:06,VALID,918.477,VALID,0.0,VALID,99.216,VALID,-0.016,VALID,19.604,VALID,89.0,VALID,0.0,
2019-06-17, 01:02:06,VALID,918.455,VALID,0.0,VALID,99.257,VALID,-0.016,VALID,19.612,VALID,89.0,VALID,0.0,
2019-06-17, 01:03:06,VALID,918.445,VALID,0.0,VALID,99.26,VALID,-0.015,VALID,19.613,VALID,89.0,VALID,0.0,
2019-06-17, 01:04:06,VALID,918.422,VALID,0.0,VALID,99.29,VALID,-0.006,VALID,19.629,VALID,89.0,VALID,0.0,
2019-06-17, 01:05:06,VALID,918.414,VALID,0.0,VALID,99.311,VALID,0.0,VALID,19.639,VALID,88.0,VALID,0.0,
2019-06-17, 01:06:06,VALID,918.427,VALID,0.0,VALID,99.289,VALID,-0.01,VALID,19.549,VALID,87.0,VALID,0.0,
2019-06-17, 01:07:06,VALID,918.418,VALID,0.0,VALID,99.254,VALID,-0.02,VALID,19.505,VALID,87.0,VALID,0.0,
2019-06-17, 01:08:06,VALID,918.422,VALID,0.0,VALID,99.265,VALID,-0.018,VALID,19.506,VALID,87.0,VALID,0.0,
2019-06-17, 01:09:06,VALID,918.408,VALID,0.0,VALID,99.256,VALID,-0.019,VALID,19.499,VALID,87.0,VALID,0.0,
2019-06-17, 01:10:06,VALID,918.389,VALID,0.0,VALID,99.251,VALID,-0.008,VALID,19.471,VALID,87.0,VALID,0.0,
2019-06-17, 01:11:06,VALID,918.369,VALID,0.0,VALID,99.245,VALID,0.006,VALID,19.445,VALID,87.0,VALID,0.0,
2019-06-17, 01:12:06,VALID,918.325,VALID,0.0,VALID,99.219,VALID,-0.0,VALID,19.414,VALID,87.0,VALID,0.0,
2019-06-17, 01:13:06,VALID,918.295,VALID,0.0,VALID,99.274,VALID,-0.014,VALID,19.466,VALID,89.0,VALID,0.0,
2019-06-17, 01:14:06,VALID,918.277,VALID,0.0,VALID,99.307,VALID,-0.003,VALID,19.483,VALID,91.0,VALID,0.0,
2019-06-17, 01:15:06,VALID,918.257,VALID,0.0,VALID,99.305,VALID,-0.018,VALID,19.473,VALID,91.0,VALID,0.0,
2019-06-17, 01:16:06,VALID,918.236,VALID,0.0,VALID,99.288,VALID,-0.013,VALID,19.441,VALID,91.0,VALID,0.0,
2019-06-17, 01:17:06,VALID,918.224,VALID,0.0,VALID,99.283,VALID,0.007,VALID,19.395,VALID,91.0,VALID,0.0,
2019-06-17, 01:18:06,VALID,918.219,VALID,0.0,VALID,99.28,VALID,-0.011,VALID,19.35,VALID,91.0,VALID,0.0,
2019-06-17, 01:19:06,VALID,918.213,VALID,0.0,VALID,99.241,VALID,-0.001,VALID,19.323,VALID,91.0,VALID,0.0,
2019-06-17, 01:20:06,VALID,918.198,VALID,0.0,VALID,99.233,VALID,0.003,VALID,19.318,VALID,93.0,VALID,0.0,
2019-06-17, 01:21:06,VALID,918.195,VALID,0.0,VALID,99.297,VALID,-0.017,VALID,19.362,VALID,106.0,VALID,0.0,
2019-06-17, 01:22:06,VALID,918.186,VALID,0.0,VALID,99.275,VALID,-0.002,VALID,19.371,VALID,117.0,VALID,0.0,
2019-06-17, 01:23:06,VALID,918.185,VALID,0.0,VALID,99.373,VALID,-0.007,VALID,19.495,VALID,115.0,VALID,0.0,
2019-06-17, 01:24:06,VALID,918.191,VALID,0.0,VALID,99.42,VALID,-0.017,VALID,19.515,VALID,118.0,VALID,0.0,
2019-06-17, 01:25:06,VALID,918.181,VALID,0.0,VALID,99.364,VALID,-0.002,VALID,19.514,VALID,120.0,VALID,0.0,
2019-06-17, 01:26:06,VALID,918.162,VALID,0.0,VALID,99.353,VALID,0.005,VALID,19.485,VALID,128.0,VALID,0.0,
2019-06-17, 01:27:06,VALID,918.134,VALID,0.0,VALID,99.391,VALID,0.008,VALID,19.49,VALID,126.0,VALID,0.0,
2019-06-17, 01:28:06,VALID,918.11,VALID,0.0,VALID,99.394,VALID,-0.002,VALID,19.498,VALID,124.0,VALID,0.0,
2019-06-17, 01:29:06,VALID,918.09,VALID,0.0,VALID,99.383,VALID,0.001,VALID,19.458,VALID,118.0,VALID,0.0,
2019-06-17, 01:30:06,VALID,918.079,VALID,0.0,VALID,99.402,VALID,-0.015,VALID,19.467,VALID,114.0,VALID,0.0,
2019-06-17, 01:31:06,VALID,918.067,VALID,0.0,VALID,99.43,VALID,-0.015,VALID,19.509,VALID,113.0,VALID,0.0,
2019-06-17, 01:32:06,VALID,918.062,VALID,0.0,VALID,99.465,VALID,-0.006,VALID,19.531,VALID,115.0,VALID,0.0,
2019-06-17, 01:33:06,VALID,918.048,VALID,0.0,VALID,99.473,VALID,-0.014,VALID,19.534,VALID,115.0,VALID,0.0,
2019-06-17, 01:34:06,VALID,918.038,VALID,0.0,VALID,99.466,VALID,0.005,VALID,19.523,VALID,114.0,VALID,0.0,
2019-06-17, 01:35:06,VALID,918.039,VALID,0.0,VALID,99.475,VALID,-0.004,VALID,19.512,VALID,110.0,VALID,0.0,
2019-06-17, 01:36:06,VALID,918.029,VALID,0.0,VALID,99.478,VALID,-0.008,VALID,19.514,VALID,107.0,VALID,0.0,
2019-06-17, 01:37:06,VALID,918.005,VALID,0.0,VALID,99.502,VALID,-0.022,VALID,19.553,VALID,93.0,VALID,0.0,
2019-06-17, 01:38:06,VALID,917.986,VALID,0.0,VALID,99.501,VALID,-0.012,VALID,19.562,VALID,84.0,VALID,0.0,
2019-06-17, 01:39:06,VALID,918.0,VALID,0.0,VALID,99.529,VALID,-0.005,VALID,19.58,VALID,83.0,VALID,0.0,
2019-06-17, 01:40:06,VALID,917.993,VALID,0.0,VALID,99.533,VALID,0.013,VALID,19.638,VALID,83.0,VALID,0.0,
2019-06-17, 01:41:06,VALID,917.993,VALID,0.0,VALID,99.584,VALID,0.013,VALID,19.801,VALID,83.0,VALID,0.0,
2019-06-17, 01:42:06,VALID,917.988,VALID,0.0,VALID,99.613,VALID,0.006,VALID,19.914,VALID,83.0,VALID,0.0,
2019-06-17, 01:43:06,VALID,917.981,VALID,0.0,VALID,99.609,VALID,0.002,VALID,19.921,VALID,91.0,VALID,0.0,
2019-06-17, 01:44:06,VALID,917.98,VALID,0.0,VALID,99.55,VALID,0.018,VALID,19.724,VALID,120.0,VALID,0.0,
2019-06-17, 01:45:06,VALID,917.966,VALID,0.0,VALID,99.432,VALID,0.013,VALID,19.49,VALID,134.0,VALID,0.0,
2019-06-17, 01:46:06,VALID,917.961,VALID,0.0,VALID,99.495,VALID,0.005,VALID,19.481,VALID,138.0,VALID,0.0,
2019-06-17, 01:47:06,VALID,917.955,VALID,0.0,VALID,99.547,VALID,0.001,VALID,19.554,VALID,146.0,VALID,0.0,
2019-06-17, 01:48:06,VALID,917.944,VALID,0.0,VALID,99.555,VALID,-0.023,VALID,19.582,VALID,127.0,VALID,0.0,
2019-06-17, 01:49:06,VALID,917.932,VALID,0.0,VALID,99.557,VALID,-0.01,VALID,19.636,VALID,119.0,VALID,0.0,
2019-06-17, 01:50:06,VALID,917.896,VALID,0.0,VALID,99.586,VALID,-0.006,VALID,19.694,VALID,115.0,VALID,0.0,
2019-06-17, 01:51:06,VALID,917.874,VALID,0.0,VALID,99.579,VALID,-0.011,VALID,19.712,VALID,113.0,VALID,0.0,
2019-06-17, 01:52:06,VALID,917.858,VALID,0.0,VALID,99.571,VALID,-0.015,VALID,19.687,VALID,103.0,VALID,0.0,
2019-06-17, 01:53:06,VALID,917.838,VALID,0.0,VALID,99.585,VALID,-0.016,VALID,19.677,VALID,111.0,VALID,0.0,
2019-06-17, 01:54:06,VALID,917.827,VALID,0.0,VALID,99.594,VALID,-0.021,VALID,19.704,VALID,116.0,VALID,0.0,
2019-06-17, 01:55:06,VALID,917.814,VALID,0.0,VALID,99.59,VALID,-0.022,VALID,19.702,VALID,116.0,VALID,0.0,
2019-06-17, 01:56:06,VALID,917.807,VALID,0.0,VALID,99.601,VALID,-0.015,VALID,19.686,VALID,121.0,VALID,0.0,
2019-06-17, 01:57:06,VALID,917.79,VALID,0.0,VALID,99.59,VALID,-0.022,VALID,19.679,VALID,119.0,VALID,0.0,
2019-06-17, 01:58:06,VALID,917.771,VALID,0.0,VALID,99.587,VALID,-0.019,VALID,19.637,VALID,115.0,VALID,0.0,
2019-06-17, 01:59:06,VALID,917.759,VALID,0.0,VALID,99.594,VALID,-0.01,VALID,19.615,VALID,115.0,VALID,0.0,
2019-06-17, 02:00:06,VALID,917.724,VALID,0.0,VALID,99.584,VALID,-0.017,VALID,19.585,VALID,106.0,VALID,0.0,
2019-06-17, 02:01:06,VALID,917.714,VALID,0.0,VALID,99.573,VALID,-0.006,VALID,19.53,VALID,102.0,VALID,0.0,
2019-06-17, 02:02:06,VALID,917.695,VALID,0.0,VALID,99.575,VALID,0.002,VALID,19.486,VALID,102.0,VALID,0.0,
2019-06-17, 02:03:06,VALID,917.691,VALID,0.0,VALID,99.557,VALID,-0.003,VALID,19.455,VALID,106.0,VALID,0.0,
2019-06-17, 02:04:06,VALID,917.676,VALID,0.0,VALID,99.599,VALID,-0.007,VALID,19.449,VALID,111.0,VALID,0.0,
2019-06-17, 02:05:06,VALID,917.664,VALID,0.0,VALID,99.588,VALID,-0.022,VALID,19.425,VALID,110.0,VALID,0.0,
2019-06-17, 02:06:06,VALID,917.645,VALID,0.0,VALID,99.583,VALID,-0.014,VALID,19.397,VALID,113.0,VALID,0.0,
2019-06-17, 02:07:06,VALID,917.649,VALID,0.0,VALID,99.603,VALID,-0.009,VALID,19.402,VALID,111.0,VALID,0.0,
2019-06-17, 02:08:06,VALID,917.635,VALID,0.0,VALID,99.632,VALID,0.007,VALID,19.461,VALID,116.0,VALID,0.0,
2019-06-17, 02:09:06,VALID,917.623,VALID,0.0,VALID,99.679,VALID,-0.0,VALID,19.57,VALID,130.0,VALID,0.0,
2019-06-17, 02:10:06,VALID,917.601,VALID,0.0,VALID,99.642,VALID,-0.003,VALID,19.567,VALID,127.0,VALID,0.0,
2019-06-17, 02:11:06,VALID,917.592,VALID,0.0,VALID,99.639,VALID,-0.013,VALID,19.528,VALID,120.0,VALID,0.0,
2019-06-17, 02:12:06,VALID,917.567,VALID,0.0,VALID,99.637,VALID,-0.006,VALID,19.514,VALID,120.0,VALID,0.0,
2019-06-17, 02:13:06,VALID,917.564,VALID,0.0,VALID,99.633,VALID,0.002,VALID,19.508,VALID,120.0,VALID,0.0,
2019-06-17, 02:14:06,VALID,917.542,VALID,0.0,VALID,99.643,VALID,-0.018,VALID,19.511,VALID,118.0,VALID,0.0,
2019-06-17, 02:15:06,VALID,917.515,VALID,0.0,VALID,99.645,VALID,-0.015,VALID,19.507,VALID,111.0,VALID,0.0,
2019-06-17, 02:16:06,VALID,917.5,VALID,0.0,VALID,99.632,VALID,-0.015,VALID,19.468,VALID,107.0,VALID,0.0,
2019-06-17, 02:17:06,VALID,917.481,VALID,0.0,VALID,99.648,VALID,0.008,VALID,19.473,VALID,106.0,VALID,0.0,
2019-06-17, 02:18:06,VALID,917.477,VALID,0.0,VALID,99.639,VALID,0.003,VALID,19.475,VALID,102.0,VALID,0.0,
2019-06-17, 02:19:06,VALID,917.439,VALID,0.0,VALID,99.659,VALID,-0.007,VALID,19.473,VALID,97.0,VALID,0.0,
2019-06-17, 02:20:06,VALID,917.431,VALID,0.0,VALID,99.645,VALID,-0.011,VALID,19.453,VALID,97.0,VALID,0.0,
2019-06-17, 02:21:06,VALID,917.408,VALID,0.0,VALID,99.657,VALID,-0.008,VALID,19.426,VALID,97.0,VALID,0.0,
2019-06-17, 02:22:06,VALID,917.378,VALID,0.0,VALID,99.643,VALID,-0.012,VALID,19.38,VALID,99.0,VALID,0.0,
2019-06-17, 02:23:06,VALID,917.377,VALID,0.0,VALID,99.649,VALID,-0.016,VALID,19.368,VALID,105.0,VALID,0.0,
2019-06-17, 02:24:06,VALID,917.367,VALID,0.0,VALID,99.671,VALID,-0.003,VALID,19.402,VALID,108.0,VALID,0.0,
2019-06-17, 02:25:06,VALID,917.347,VALID,0.0,VALID,99.665,VALID,0.0,VALID,19.414,VALID,105.0,VALID,0.0,
2019-06-17, 02:26:06,VALID,917.359,VALID,0.0,VALID,99.671,VALID,-0.005,VALID,19.412,VALID,100.0,VALID,0.0,
2019-06-17, 02:27:06,VALID,917.35,VALID,0.0,VALID,99.675,VALID,-0.003,VALID,19.367,VALID,101.0,VALID,0.0,
2019-06-17, 02:28:06,VALID,917.353,VALID,0.0,VALID,99.654,VALID,-0.019,VALID,19.317,VALID,98.0,VALID,0.0,
2019-06-17, 02:29:06,VALID,917.351,VALID,0.0,VALID,99.667,VALID,-0.016,VALID,19.29,VALID,100.0,VALID,0.0,
2019-06-17, 02:30:06,VALID,917.354,VALID,0.0,VALID,99.69,VALID,-0.011,VALID,19.285,VALID,106.0,VALID,0.0,
2019-06-17, 02:31:06,VALID,917.353,VALID,0.0,VALID,99.682,VALID,-0.008,VALID,19.328,VALID,108.0,VALID,0.0,
2019-06-17, 02:32:06,VALID,917.358,VALID,0.0,VALID,99.707,VALID,-0.01,VALID,19.398,VALID,107.0,VALID,0.0,
2019-06-17, 02:33:06,VALID,917.369,VALID,0.0,VALID,99.708,VALID,-0.007,VALID,19.425,VALID,106.0,VALID,0.0,
2019-06-17, 02:34:06,VALID,917.381,VALID,0.0,VALID,99.698,VALID,-0.014,VALID,19.415,VALID,110.0,VALID,0.0,
2019-06-17, 02:35:06,VALID,917.394,VALID,0.0,VALID,99.736,VALID,0.008,VALID,19.522,VALID,120.0,VALID,0.0,
2019-06-17, 02:36:06,VALID,917.411,VALID,0.0,VALID,99.735,VALID,-0.002,VALID,19.555,VALID,124.0,VALID,0.0,
2019-06-17, 02:37:06,VALID,917.42,VALID,0.0,VALID,99.72,VALID,-0.004,VALID,19.515,VALID,122.0,VALID,0.0,
2019-06-17, 02:38:06,VALID,917.434,VALID,0.0,VALID,99.714,VALID,0.012,VALID,19.471,VALID,124.0,VALID,0.0,
2019-06-17, 02:39:06,VALID,917.417,VALID,0.0,VALID,99.7,VALID,-0.006,VALID,19.461,VALID,127.0,VALID,0.0,
2019-06-17, 02:40:06,VALID,917.427,VALID,0.0,VALID,99.722,VALID,0.002,VALID,19.477,VALID,127.0,VALID,0.0,
2019-06-17, 02:41:06,VALID,917.397,VALID,0.0,VALID,99.71,VALID,0.015,VALID,19.474,VALID,121.0,VALID,0.0,
2019-06-17, 02:42:06,VALID,917.422,VALID,0.0,VALID,99.726,VALID,0.005,VALID,19.477,VALID,129.0,VALID,0.0,
2019-06-17, 02:43:06,VALID,917.412,VALID,0.0,VALID,99.702,VALID,0.004,VALID,19.49,VALID,128.0,VALID,0.0,
2019-06-17, 02:44:06,VALID,917.4,VALID,0.0,VALID,99.729,VALID,-0.01,VALID,19.499,VALID,124.0,VALID,0.0,
2019-06-17, 02:45:06,VALID,917.404,VALID,0.0,VALID,99.717,VALID,0.006,VALID,19.501,VALID,115.0,VALID,0.0,
2019-06-17, 02:46:06,VALID,917.392,VALID,0.0,VALID,99.712,VALID,-0.018,VALID,19.487,VALID,97.0,VALID,0.0,
2019-06-17, 02:47:06,VALID,917.378,VALID,0.0,VALID,99.726,VALID,0.029,VALID,19.509,VALID,95.0,VALID,0.0,
2019-06-17, 02:48:06,VALID,917.404,VALID,0.0,VALID,99.737,VALID,0.028,VALID,19.553,VALID,95.0,VALID,0.0,
2019-06-17, 02:49:06,VALID,917.421,VALID,0.0,VALID,99.724,VALID,0.02,VALID,19.57,VALID,99.0,VALID,0.0,
2019-06-17, 02:50:06,VALID,917.433,VALID,0.0,VALID,99.749,VALID,0.044,VALID,19.555,VALID,100.0,VALID,0.0,
2019-06-17, 02:51:06,VALID,917.427,VALID,0.0,VALID,99.711,VALID,0.041,VALID,19.526,VALID,103.0,VALID,0.0,
2019-06-17, 02:52:06,VALID,917.453,VALID,0.0,VALID,99.726,VALID,0.043,VALID,19.521,VALID,111.0,VALID,0.0,
2019-06-17, 02:53:06,VALID,917.455,VALID,0.0,VALID,99.726,VALID,0.036,VALID,19.577,VALID,115.0,VALID,0.0,
2019-06-17, 02:54:06,VALID,917.442,VALID,0.0,VALID,99.754,VALID,0.024,VALID,19.631,VALID,117.0,VALID,0.0,
2019-06-17, 02:55:06,VALID,917.452,VALID,0.0,VALID,99.75,VALID,0.044,VALID,19.657,VALID,117.0,VALID,0.0,
2019-06-17, 02:56:06,VALID,917.444,VALID,0.0,VALID,99.755,VALID,0.043,VALID,19.697,VALID,114.0,VALID,0.0,
2019-06-17, 02:57:06,VALID,917.45,VALID,0.0,VALID,99.738,VALID,0.033,VALID,19.728,VALID,116.0,VALID,0.0,
2019-06-17, 02:58:06,VALID,917.436,VALID,0.0,VALID,99.755,VALID,0.032,VALID,19.743,VALID,113.0,VALID,0.0,
2019-06-17, 02:59:06,VALID,917.443,VALID,0.0,VALID,99.739,VALID,0.039,VALID,19.75,VALID,115.0,VALID,0.0,
2019-06-17, 03:00:06,VALID,917.441,VALID,0.0,VALID,99.762,VALID,0.043,VALID,19.753,VALID,115.0,VALID,0.0,
2019-06-17, 03:01:06,VALID,917.436,VALID,0.0,VALID,99.75,VALID,0.038,VALID,19.755,VALID,109.0,VALID,0.0,
2019-06-17, 03:02:06,VALID,917.428,VALID,0.0,VALID,99.734,VALID,-0.005,VALID,19.741,VALID,107.0,VALID,0.0,
2019-06-17, 03:03:06,VALID,917.432,VALID,0.0,VALID,99.741,VALID,0.004,VALID,19.743,VALID,95.0,VALID,0.0,
2019-06-17, 03:04:06,VALID,917.389,VALID,0.0,VALID,99.736,VALID,0.003,VALID,19.741,VALID,95.0,VALID,0.0,
2019-06-17, 03:05:06,VALID,917.375,VALID,0.0,VALID,99.738,VALID,0.015,VALID,19.73,VALID,95.0,VALID,0.0,
2019-06-17, 03:06:06,VALID,917.366,VALID,0.0,VALID,99.744,VALID,-0.013,VALID,19.723,VALID,95.0,VALID,0.0,
2019-06-17, 03:07:06,VALID,917.337,VALID,0.0,VALID,99.731,VALID,-0.012,VALID,19.705,VALID,95.0,VALID,0.0,
2019-06-17, 03:08:06,VALID,917.342,VALID,0.0,VALID,99.728,VALID,-0.005,VALID,19.712,VALID,95.0,VALID,0.0,
2019-06-17, 03:09:06,VALID,917.325,VALID,0.0,VALID,99.745,VALID,0.001,VALID,19.718,VALID,94.0,VALID,0.0,
2019-06-17, 03:10:06,VALID,917.322,VALID,0.0,VALID,99.725,VALID,-0.007,VALID,19.708,VALID,94.0,VALID,0.0,
2019-06-17, 03:11:06,VALID,917.308,VALID,0.0,VALID,99.728,VALID,-0.013,VALID,19.687,VALID,94.0,VALID,0.0,
2019-06-17, 03:12:06,VALID,917.296,VALID,0.0,VALID,99.733,VALID,-0.011,VALID,19.681,VALID,94.0,VALID,0.0,
2019-06-17, 03:13:06,VALID,917.287,VALID,0.0,VALID,99.748,VALID,-0.012,VALID,19.699,VALID,94.0,VALID,0.0,
2019-06-17, 03:14:06,VALID,917.29,VALID,0.0,VALID,99.738,VALID,0.001,VALID,19.712,VALID,94.0,VALID,0.0,
2019-06-17, 03:15:06,VALID,917.298,VALID,0.0,VALID,99.739,VALID,0.004,VALID,19.719,VALID,99.0,VALID,0.0,
2019-06-17, 03:16:06,VALID,917.309,VALID,0.0,VALID,99.733,VALID,-0.025,VALID,19.722,VALID,97.0,VALID,0.0,
2019-06-17, 03:17:06,VALID,917.301,VALID,0.0,VALID,99.706,VALID,-0.003,VALID,19.708,VALID,97.0,VALID,0.0,
2019-06-17, 03:18:06,VALID,917.293,VALID,0.0,VALID,99.718,VALID,0.014,VALID,19.703,VALID,99.0,VALID,0.0,
2019-06-17, 03:19:06,VALID,917.303,VALID,0.0,VALID,99.722,VALID,0.015,VALID,19.724,VALID,106.0,VALID,0.0,
2019-06-17, 03:20:06,VALID,917.313,VALID,0.0,VALID,99.729,VALID,0.017,VALID,19.749,VALID,111.0,VALID,0.0,
2019-06-17, 03:21:06,VALID,917.325,VALID,0.0,VALID,99.706,VALID,0.019,VALID,19.769,VALID,121.0,VALID,0.0,
2019-06-17, 03:22:06,VALID,917.333,VALID,0.0,VALID,99.736,VALID,0.009,VALID,19.802,VALID,121.0,VALID,0.0,
2019-06-17, 03:23:06,VALID,917.327,VALID,0.0,VALID,99.736,VALID,0.026,VALID,19.833,VALID,106.0,VALID,0.0,
2019-06-17, 03:24:06,VALID,917.313,VALID,0.0,VALID,99.719,VALID,0.03,VALID,19.845,VALID,107.0,VALID,0.0,
2019-06-17, 03:25:06,VALID,917.315,VALID,0.0,VALID,99.706,VALID,0.011,VALID,19.849,VALID,107.0,VALID,0.0,
2019-06-17, 03:26:06,VALID,917.323,VALID,0.0,VALID,99.703,VALID,0.023,VALID,19.838,VALID,108.0,VALID,0.0,
2019-06-17, 03:27:06,VALID,917.31,VALID,0.0,VALID,99.701,VALID,0.015,VALID,19.819,VALID,108.0,VALID,0.0,
2019-06-17, 03:28:06,VALID,917.318,VALID,0.0,VALID,99.687,VALID,0.02,VALID,19.818,VALID,108.0,VALID,0.0,
2019-06-17, 03:29:06,VALID,917.289,VALID,0.0,VALID,99.707,VALID,0.019,VALID,19.825,VALID,108.0,VALID,0.0,
2019-06-17, 03:30:06,VALID,917.272,VALID,0.0,VALID,99.71,VALID,0.022,VALID,19.845,VALID,108.0,VALID,0.0,
2019-06-17, 03:31:06,VALID,917.273,VALID,0.0,VALID,99.692,VALID,0.002,VALID,19.843,VALID,108.0,VALID,0.0,
2019-06-17, 03:32:06,VALID,917.245,VALID,0.0,VALID,99.693,VALID,0.017,VALID,19.836,VALID,108.0,VALID,0.0,
2019-06-17, 03:33:06,VALID,917.235,VALID,0.0,VALID,99.688,VALID,0.005,VALID,19.837,VALID,108.0,VALID,0.0,
2019-06-17, 03:34:06,VALID,917.222,VALID,0.0,VALID,99.681,VALID,0.005,VALID,19.843,VALID,108.0,VALID,0.0,
2019-06-17, 03:35:06,VALID,917.209,VALID,0.0,VALID,99.688,VALID,0.001,VALID,19.851,VALID,108.0,VALID,0.0,
2019-06-17, 03:36:06,VALID,917.2,VALID,0.0,VALID,99.672,VALID,-0.005,VALID,19.86,VALID,108.0,VALID,0.0,
2019-06-17, 03:37:06,VALID,917.185,VALID,0.0,VALID,99.682,VALID,0.001,VALID,19.861,VALID,108.0,VALID,0.0,
2019-06-17, 03:38:06,VALID,917.171,VALID,0.0,VALID,99.672,VALID,0.012,VALID,19.875,VALID,108.0,VALID,0.0,
2019-06-17, 03:39:06,VALID,917.178,VALID,0.0,VALID,99.648,VALID,-0.001,VALID,19.875,VALID,108.0,VALID,0.0,
2019-06-17, 03:40:06,VALID,917.166,VALID,0.0,VALID,99.635,VALID,0.011,VALID,19.885,VALID,108.0,VALID,0.0,
2019-06-17, 03:41:06,VALID,917.181,VALID,0.0,VALID,99.643,VALID,0.015,VALID,19.883,VALID,108.0,VALID,0.0,
2019-06-17, 03:42:06,VALID,917.161,VALID,0.0,VALID,99.64,VALID,0.002,VALID,19.876,VALID,108.0,VALID,0.0,